Weather History for Alma, GA

Change the Weather History Date:

Saturday, July 27, 2013

  Actual Average Record
Temperature  
Mean Temperature 84 °F 82 °F  
Max Temperature 91 °F 93 °F 99 °F (1968)
Min Temperature 76 °F 72 °F 67 °F (1985)
Degree Days  
Heating Degree Days 0 0  
Month to date heating degree days 0 0  
Since 1 June heating degree days 0 0  
Since 1 July heating degree days 0 0  
Cooling Degree Days 19 17  
Month to date cooling degree days 418 458  
Year to date cooling degree days 1188 1331  
Since 1 June cooling degree days 877 901  
Growing Degree Days 33 (Base 50)    
Moisture  
Dew Point 74 °F    
Average Humidity 72    
Maximum Humidity 94    
Minimum Humidity 49    
Precipitation  
Precipitation 0.00 in 0.18 in 2.08 in (1998)
Month to date precipitation 6.70 4.58  
Year to date precipitation 33.14 28.05  
Snow  
Snow 0.00 in 0.00 in 0.00 in ()
Month to date snowfall 0.0 0.0  
Since 1 June snowfall 0.0 0.0  
Since 1 July snowfall 0.0 0.0  
Snow Depth 0.00 in    
Sea Level Pressure  
Sea Level Pressure 29.96 in    
Wind  
Wind Speed 3 mph (SE)    
Max Wind Speed 10 mph    
Max Gust Speed 20 mph    
Visibility 6 miles    
Events Thunderstorm    
T = Trace of Precipitation, MM = Missing Value Source: NWS Daily Summary

Daily Weather History Graph

Daily Weather History Graph

Search for Another Location

Airport:

Trip Planner

Search our weather history database for the weather conditions in past years. The results will help you decide how hot, cold, wet, or windy it might be!

Date:

Astronomy

Jul. 27, 2013 Rise Set
Actual Time 6:43 AM EDT 8:29 PM EDT
Civil Twilight 6:16 AM EDT 8:56 PM EDT
Nautical Twilight 5:44 AM EDT 9:28 PM EDT
Astronomical Twilight 5:10 AM EDT 10:02 PM EDT
Moon 11:43 PM EDT (7/27) 11:57 AM EDT (7/27)
Length of Visible Light 14h 39m
Length of Day
13h 46m
Waning Gibbous, 71% of the Moon is Illuminated
Jul 27
Waning Gibbous
Jul 29
Last Quarter
Aug 6
New
Aug 14
First Quarter
Aug 20
Full

Hourly Weather History & Observations

Time (EDT) Temp. Heat Index Dew Point Humidity Pressure Visibility Wind Dir Wind Speed Gust Speed Precip Events Conditions
12:53 AM 77.0 °F - 75.0 °F 94% 30.02 in 5.0 mi Calm Calm - N/A   Scattered Clouds
12:57 AM 77.0 °F - 75.2 °F 94% 30.03 in 5.0 mi Calm Calm - N/A   Mostly Cloudy
1:53 AM 77.0 °F - 75.0 °F 94% 29.99 in 4.0 mi East 3.5 mph - N/A   Overcast
2:53 AM 78.1 °F - 75.9 °F 93% 29.98 in 5.0 mi Calm Calm - N/A   Overcast
3:34 AM 78.8 °F - 75.2 °F 89% 29.98 in 5.0 mi SE 5.8 mph - N/A   Overcast
3:45 AM 77.0 °F - 75.2 °F 94% 29.97 in 5.0 mi SE 3.5 mph - N/A   Overcast
3:53 AM 78.1 °F - 75.0 °F 90% 29.97 in 5.0 mi SSE 3.5 mph - N/A   Overcast
4:37 AM 77.0 °F - 75.2 °F 94% 29.97 in 4.0 mi SE 3.5 mph - N/A   Mostly Cloudy
4:53 AM 77.0 °F - 75.0 °F 94% 29.96 in 4.0 mi SE 3.5 mph - N/A   Mostly Cloudy
5:24 AM 77.0 °F - 75.2 °F 94% 29.97 in 3.0 mi Calm Calm - N/A   Mostly Cloudy
5:53 AM 77.0 °F - 75.0 °F 94% 29.96 in 3.0 mi East 3.5 mph - N/A   Overcast
6:14 AM 77.0 °F - 75.2 °F 94% 29.97 in 3.0 mi SE 4.6 mph - N/A   Overcast
6:36 AM 75.2 °F - 75.2 °F 100% 29.97 in 3.0 mi Calm Calm - N/A   Overcast
6:53 AM 77.0 °F - 75.0 °F 94% 29.97 in 2.5 mi Calm Calm - N/A   Overcast
7:12 AM 77.0 °F - 75.2 °F 94% 29.98 in 2.5 mi ESE 4.6 mph - N/A   Overcast
7:22 AM 77.0 °F - 75.2 °F 94% 29.98 in 2.5 mi ESE 5.8 mph - N/A   Overcast
7:44 AM 77.0 °F - 75.2 °F 94% 29.98 in 3.0 mi SE 4.6 mph - N/A   Overcast
7:53 AM 78.1 °F - 75.0 °F 90% 29.97 in 3.0 mi SE 4.6 mph - N/A   Overcast
8:53 AM 79.0 °F - 75.0 °F 88% 29.99 in 5.0 mi SSE 6.9 mph - N/A   Overcast
9:01 AM 78.8 °F - 75.2 °F 89% 30.00 in 6.0 mi SSE 5.8 mph - N/A   Overcast
9:08 AM 78.8 °F - 75.2 °F 89% 30.00 in 6.0 mi SSE 4.6 mph - N/A   Overcast
9:53 AM 80.1 °F 84.5 °F 73.9 °F 81% 29.99 in 7.0 mi SSE 5.8 mph - N/A   Overcast
10:53 AM 82.0 °F 88.6 °F 75.0 °F 79% 29.99 in 7.0 mi South 6.9 mph - N/A   Overcast
11:53 AM 82.9 °F 90.2 °F 75.0 °F 77% 29.99 in 7.0 mi WSW 5.8 mph - N/A   Overcast
12:27 PM 84.2 °F 92.3 °F 75.2 °F 74% 29.98 in 7.0 mi Variable 3.5 mph - N/A   Mostly Cloudy
12:53 PM 84.9 °F 93.3 °F 75.0 °F 72% 29.96 in 7.0 mi Calm Calm - N/A   Mostly Cloudy
1:09 PM 86.0 °F 93.4 °F 73.4 °F 66% 29.97 in 7.0 mi SW 3.5 mph - N/A   Scattered Clouds
1:53 PM 88.0 °F 95.6 °F 73.0 °F 61% 29.94 in 8.0 mi Variable 3.5 mph - N/A   Scattered Clouds
2:53 PM 86.0 °F 92.2 °F 72.0 °F 63% 29.92 in 9.0 mi West 4.6 mph - N/A   Overcast
3:44 PM 87.8 °F 92.6 °F 69.8 °F 55% 29.91 in 10.0 mi Calm Calm - N/A Thunderstorm Thunderstorm
3:53 PM 88.0 °F 91.4 °F 68.0 °F 51% 29.90 in 10.0 mi Calm Calm - N/A   Overcast
4:53 PM 91.0 °F 96.6 °F 70.0 °F 50% 29.89 in 10.0 mi NNW 4.6 mph - N/A   Scattered Clouds
5:53 PM 87.1 °F 93.6 °F 72.0 °F 61% 29.90 in 9.0 mi ESE 5.8 mph - N/A   Scattered Clouds
6:53 PM 86.0 °F 93.0 °F 73.0 °F 65% 29.91 in 9.0 mi Calm Calm - N/A   Mostly Cloudy
7:53 PM 82.9 °F 87.5 °F 71.1 °F 67% 29.93 in 10.0 mi Calm Calm - N/A   Clear
8:53 PM 78.1 °F - 73.0 °F 84% 29.94 in 9.0 mi Calm Calm - N/A   Clear
9:53 PM 79.0 °F - 73.9 °F 84% 29.95 in 9.0 mi Calm Calm - N/A   Partly Cloudy
10:53 PM 78.1 °F - 73.9 °F 87% 29.95 in 10.0 mi SSE 3.5 mph - N/A   Clear
11:53 PM 77.0 °F - 73.9 °F 90% 29.94 in 9.0 mi SSE 3.5 mph - N/A   Clear